Location: ???????
(55.3754°N, 39.3545°E)
Time: 18:06:41
(UTC+00:00)

Cosmos 1975 Rocket - Pass Details

Date: 14 April 2026
Orbit: 597 x 626 km, 82.5° (Epoch: 16 May)

Event Time Altitude Azimuth Distance (km) Brightness Sun altitude
Rises 20:05:25 0° 344° (NNW) 2,928 8.0 -23.0°
Reaches altitude 10° 20:07:43 10° 339° (NNW) 2,015 6.8 -23.1°
Maximum altitude 20:12:00 48° 266° (W) 828 3.7 -23.3°
Enters shadow 20:12:35 45° 241° (WSW) 862 3.6 -23.3°
